| time (UTC) | temp C | wind direction | speed KPH | gust KPH | rain 1hr cm | rain 24hr cm | rain mn cm | humidity % | barometer mb |
| 20260507193245 | 16 | 312 | 9.7 | 22.5 | 0.00 | 0.43 | 0.00 | 37 | 1016.7 |
| 20260507192742 | 15 | 342 | 9.7 | 25.7 | 0.00 | 0.43 | 0.00 | 38 | 1016.8 |
| 20260507191743 | 15 | 341 | 9.7 | 32.2 | 0.00 | 0.46 | 0.00 | 36 | 1017.0 |
| 20260507191242 | 15 | 268 | 8.0 | 17.7 | 0.00 | 0.46 | 0.00 | 33 | 1016.9 |
| 20260507190742 | 15 | 279 | 6.4 | 20.9 | 0.00 | 0.46 | 0.00 | 33 | 1016.9 |
| 20260507190242 | 15 | 273 | 3.2 | 20.9 | 0.00 | 0.46 | 0.00 | 36 | 1016.9 |
| 20260507184231 | 15 | 23 | 4.8 | 16.1 | 0.00 | 0.48 | 0.00 | 34 | 1016.9 |
| 20260507183230 | 14 | 322 | 6.4 | 12.9 | 0.00 | 0.48 | 0.00 | 33 | 1017.0 |
| 20260507182732 | 14 | 311 | 8.0 | 19.3 | 0.00 | 0.48 | 0.00 | 34 | 1017.0 |
| 20260507181728 | 14 | 355 | 4.8 | 17.7 | 0.00 | 0.51 | 0.00 | 36 | 1016.9 |
| 20260507181229 | 14 | 264 | 4.8 | 17.7 | 0.00 | 0.51 | 0.00 | 33 | 1017.2 |
| 20260507180715 | 14 | 298 | 3.2 | 17.7 | 0.00 | 0.51 | 0.00 | 32 | 1017.3 |
| 20260507180215 | 14 | 12 | 1.6 | 8.0 | 0.00 | 0.51 | 0.00 | 34 | 1017.3 |
| 20260507175715 | 14 | 323 | 1.6 | 12.9 | 0.00 | 0.53 | 0.00 | 32 | 1017.4 |
| 20260507175215 | 14 | 300 | 3.2 | 16.1 | 0.00 | 0.53 | 0.00 | 34 | 1017.4 |
| 20260507174711 | 13 | 325 | 4.8 | 16.1 | 0.00 | 0.53 | 0.00 | 32 | 1017.4 |
| 20260507174212 | 13 | 250 | 4.8 | 16.1 | 0.00 | 0.53 | 0.00 | 33 | 1017.5 |
| 20260507173711 | 14 | 355 | 3.2 | 14.5 | 0.00 | 0.53 | 0.00 | 34 | 1017.7 |
| 20260507173212 | 14 | 272 | 4.8 | 19.3 | 0.00 | 0.53 | 0.00 | 32 | 1017.7 |
| 20260507172701 | 15 | 318 | 3.2 | 19.3 | 0.00 | 0.53 | 0.00 | 31 | 1017.7 |
| 20260507172148 | 15 | 324 | 1.6 | 17.7 | 0.00 | 0.53 | 0.00 | 36 | 1017.7 |
| 20260507171148 | 15 | 267 | 3.2 | 16.1 | 0.00 | 0.53 | 0.00 | 32 | 1017.7 |
| 20260507170648 | 15 | 355 | 3.2 | 16.1 | 0.00 | 0.53 | 0.00 | 35 | 1017.7 |
| 20260507170148 | 15 | 314 | 4.8 | 16.1 | 0.00 | 0.53 | 0.00 | 35 | 1017.7 |
| 20260507165650 | 15 | 316 | 6.4 | 16.1 | 0.00 | 0.53 | 0.00 | 36 | 1017.8 |
| 20260507164649 | 14 | 342 | 4.8 | 17.7 | 0.00 | 0.53 | 0.00 | 35 | 1017.8 |
| 20260507164135 | 14 | 298 | 4.8 | 16.1 | 0.00 | 0.53 | 0.00 | 34 | 1017.9 |
| 20260507163134 | 13 | 5 | 3.2 | 17.7 | 0.00 | 0.53 | 0.00 | 35 | 1018.0 |
| 20260507162636 | 13 | 323 | 4.8 | 16.1 | 0.00 | 0.53 | 0.00 | 33 | 1017.9 |
| 20260507162134 | 13 | 309 | 4.8 | 17.7 | 0.00 | 0.53 | 0.00 | 32 | 1017.9 |
| 20260507161634 | 13 | 304 | 4.8 | 17.7 | 0.00 | 0.53 | 0.00 | 31 | 1017.9 |
| 20260507161134 | 13 | 315 | 4.8 | 14.5 | 0.00 | 0.53 | 0.00 | 39 | 1018.0 |
| 20260507160634 | 12 | 313 | 4.8 | 14.5 | 0.00 | 0.56 | 0.00 | 37 | 1018.2 |
| 20260507160136 | 12 | 273 | 4.8 | 16.1 | 0.00 | 0.56 | 0.00 | 40 | 1018.0 |
| 20260507155621 | 12 | 312 | 4.8 | 16.1 | 0.00 | 0.56 | 0.00 | 40 | 1018.2 |
| 20260507155115 | 11 | 303 | 4.8 | 16.1 | 0.00 | 0.56 | 0.00 | 42 | 1018.2 |
| 20260507154617 | 11 | 274 | 8.0 | 19.3 | 0.00 | 0.56 | 0.00 | 41 | 1018.2 |
| 20260507154113 | 11 | 300 | 8.0 | 19.3 | 0.00 | 0.56 | 0.00 | 40 | 1018.0 |
| 20260507153614 | 11 | 311 | 8.0 | 19.3 | 0.00 | 0.56 | 0.00 | 42 | 1018.2 |
| 20260507153114 | 11 | 292 | 8.0 | 17.7 | 0.00 | 0.56 | 0.00 | 45 | 1018.0 |
| 20260507152114 | 10 | 320 | 6.4 | 17.7 | 0.00 | 0.56 | 0.00 | 43 | 1018.3 |
| 20260507151614 | 10 | 315 | 4.8 | 17.7 | 0.00 | 0.56 | 0.00 | 45 | 1018.3 |
| 20260507151109 | 10 | 329 | 6.4 | 17.7 | 0.00 | 0.56 | 0.00 | 47 | 1018.2 |
| 20260507150609 | 10 | 328 | 6.4 | 17.7 | 0.00 | 0.56 | 0.00 | 43 | 1018.2 |
| 20260507150110 | 9 | 301 | 6.4 | 19.3 | 0.00 | 0.56 | 0.00 | 44 | 1018.0 |
| 20260507145610 | 9 | 294 | 6.4 | 19.3 | 0.00 | 0.56 | 0.00 | 46 | 1018.0 |
| 20260507145111 | 9 | 323 | 8.0 | 19.3 | 0.00 | 0.56 | 0.00 | 45 | 1018.0 |
| 20260507143557 | 8 | 298 | 8.0 | 20.9 | 0.00 | 0.56 | 0.00 | 44 | 1018.2 |
| 20260507143059 | 8 | 304 | 4.8 | 16.1 | 0.00 | 0.56 | 0.00 | 45 | 1018.0 |
| 20260507142559 | 8 | 305 | 4.8 | 16.1 | 0.00 | 0.56 | 0.00 | 43 | 1018.0 |
| 20260507141551 | 8 | 323 | 6.4 | 17.7 | 0.00 | 0.56 | 0.00 | 44 | 1017.9 |
| 20260507135549 | 7 | 294 | 8.0 | 16.1 | 0.00 | 0.56 | 0.00 | 42 | 1017.9 |
| 20260507135050 | 7 | 312 | 8.0 | 16.1 | 0.00 | 0.56 | 0.00 | 41 | 1017.9 |
| 20260507134550 | 7 | 318 | 8.0 | 16.1 | 0.00 | 0.56 | 0.00 | 42 | 1018.0 |
| 20260507133550 | 6 | 317 | 8.0 | 14.5 | 0.00 | 0.56 | 0.00 | 43 | 1017.8 |
| 20260507133051 | 6 | 320 | 8.0 | 16.1 | 0.00 | 0.56 | 0.00 | 43 | 1017.7 |
| 20260507132051 | 6 | 314 | 8.0 | 16.1 | 0.00 | 0.56 | 0.00 | 44 | 1017.7 |
| 20260507131537 | 5 | 287 | 8.0 | 16.1 | 0.00 | 0.56 | 0.00 | 44 | 1017.5 |
| 20260507131035 | 5 | 319 | 9.7 | 16.1 | 0.00 | 0.56 | 0.00 | 45 | 1017.5 |
| 20260507130533 | 5 | 316 | 9.7 | 17.7 | 0.00 | 0.56 | 0.00 | 45 | 1017.5 |
| 20260507130034 | 5 | 311 | 8.0 | 17.7 | 0.00 | 0.56 | 0.00 | 45 | 1017.5 |
| 20260507125533 | 4 | 350 | 8.0 | 16.1 | 0.00 | 0.56 | 0.00 | 45 | 1017.5 |
| 20260507125033 | 4 | 306 | 8.0 | 16.1 | 0.00 | 0.56 | 0.00 | 45 | 1017.4 |
| 20260507124033 | 4 | 300 | 8.0 | 17.7 | 0.00 | 0.56 | 0.00 | 45 | 1017.4 |
| 20260507123534 | 3 | 316 | 8.0 | 17.7 | 0.00 | 0.56 | 0.00 | 45 | 1017.3 |
| 20260507122512 | 3 | 302 | 8.0 | 16.1 | 0.00 | 0.56 | 0.00 | 47 | 1017.2 |
| 20260507122011 | 2 | 298 | 6.4 | 14.5 | 0.00 | 0.56 | 0.00 | 47 | 1017.0 |
| 20260507121512 | 2 | 300 | 6.4 | 12.9 | 0.00 | 0.56 | 0.00 | 49 | 1017.2 |
| 20260507121013 | 2 | 313 | 6.4 | 16.1 | 0.00 | 0.56 | 0.00 | 49 | 1017.2 |
| 20260507120512 | 2 | 309 | 6.4 | 16.1 | 0.00 | 0.56 | 0.00 | 49 | 1017.2 |
| 20260507120011 | 1 | 312 | 6.4 | 14.5 | 0.00 | 0.56 | 0.00 | 49 | 1017.0 |
| 20260507115512 | 1 | 348 | 4.8 | 12.9 | 0.00 | 0.56 | 0.00 | 49 | 1017.0 |
| 20260507115012 | 1 | 320 | 3.2 | 12.9 | 0.00 | 0.56 | 0.00 | 49 | 1017.2 |
| 20260507114502 | 1 | 298 | 3.2 | 11.3 | 0.00 | 0.56 | 0.00 | 50 | 1017.2 |
| 20260507113957 | 2 | 309 | 4.8 | 12.9 | 0.00 | 0.56 | 0.00 | 49 | 1017.2 |
| 20260507113457 | 2 | 318 | 4.8 | 14.5 | 0.00 | 0.56 | 0.00 | 48 | 1017.2 |
| 20260507112958 | 2 | 299 | 6.4 | 14.5 | 0.00 | 0.56 | 0.00 | 47 | 1017.2 |
| 20260507112455 | 2 | 326 | 6.4 | 14.5 | 0.00 | 0.56 | 0.00 | 46 | 1017.2 |
| 20260507111956 | 2 | 318 | 8.0 | 16.1 | 0.00 | 0.56 | 0.00 | 46 | 1017.2 |
| 20260507111455 | 2 | 308 | 6.4 | 16.1 | 0.00 | 0.56 | 0.00 | 46 | 1017.3 |
| 20260507110956 | 2 | 326 | 6.4 | 16.1 | 0.00 | 0.56 | 0.00 | 46 | 1017.3 |
| 20260507110457 | 2 | 287 | 6.4 | 16.1 | 0.00 | 0.56 | 0.00 | 46 | 1017.2 |
| 20260507105947 | 2 | 304 | 6.4 | 14.5 | 0.00 | 0.56 | 0.00 | 47 | 1017.2 |
| 20260507105440 | 2 | 298 | 8.0 | 16.1 | 0.00 | 0.56 | 0.00 | 48 | 1017.2 |
| 20260507104933 | 2 | 317 | 8.0 | 16.1 | 0.00 | 0.56 | 0.00 | 47 | 1017.2 |
| 20260507104434 | 2 | 300 | 8.0 | 16.1 | 0.00 | 0.56 | 0.00 | 47 | 1017.2 |
| 20260507103934 | 1 | 331 | 6.4 | 16.1 | 0.00 | 0.56 | 0.00 | 48 | 1017.2 |
| 20260507103433 | 1 | 306 | 6.4 | 14.5 | 0.00 | 0.56 | 0.00 | 49 | 1017.2 |
| 20260507102933 | 1 | 326 | 6.4 | 14.5 | 0.00 | 0.56 | 0.00 | 49 | 1017.2 |
| 20260507102435 | 1 | 313 | 6.4 | 14.5 | 0.00 | 0.56 | 0.00 | 50 | 1017.4 |
| 20260507101933 | 1 | 290 | 6.4 | 16.1 | 0.00 | 0.56 | 0.00 | 51 | 1017.3 |
| 20260507101434 | 1 | 305 | 6.4 | 16.1 | 0.00 | 0.56 | 0.00 | 51 | 1017.5 |
| 20260507100920 | 1 | 314 | 4.8 | 14.5 | 0.00 | 0.56 | 0.00 | 52 | 1017.5 |
| 20260507095904 | 0 | 288 | 4.8 | 12.9 | 0.00 | 0.56 | 0.00 | 54 | 1017.5 |
| 20260507095350 | 0 | 307 | 3.2 | 12.9 | 0.00 | 0.56 | 0.00 | 55 | 1017.4 |
| 20260507094840 | 0 | 305 | 3.2 | 12.9 | 0.00 | 0.56 | 0.00 | 56 | 1017.4 |
| 20260507094335 | 0 | 292 | 3.2 | 12.9 | 0.00 | 0.56 | 0.00 | 57 | 1017.4 |
| 20260507093836 | 0 | 294 | 4.8 | 14.5 | 0.00 | 0.56 | 0.00 | 57 | 1017.4 |
| 20260507093336 | 0 | 308 | 6.4 | 14.5 | 0.00 | 0.56 | 0.00 | 56 | 1017.4 |
| 20260507092336 | 0 | 277 | 4.8 | 14.5 | 0.00 | 0.56 | 0.00 | 58 | 1017.5 |
| 20260507091835 | 0 | 313 | 4.8 | 17.7 | 0.00 | 0.56 | 0.00 | 59 | 1017.5 |
| 20260507091336 | 0 | 332 | 4.8 | 17.7 | 0.00 | 0.56 | 0.00 | 59 | 1017.5 |
| 20260507090822 | 0 | 295 | 4.8 | 16.1 | 0.00 | 0.56 | 0.00 | 59 | 1017.7 |
| 20260507090315 | 0 | 293 | 6.4 | 16.1 | 0.00 | 0.56 | 0.00 | 59 | 1017.7 |
| 20260507085815 | 0 | 299 | 4.8 | 14.5 | 0.00 | 0.56 | 0.00 | 60 | 1017.7 |
| 20260507085316 | 0 | 301 | 6.4 | 12.9 | 0.00 | 0.56 | 0.00 | 62 | 1017.5 |
| 20260507084816 | 0 | 300 | 6.4 | 12.9 | 0.00 | 0.56 | 0.00 | 63 | 1017.7 |
| 20260507083813 | 0 | 313 | 3.2 | 9.7 | 0.00 | 0.56 | 0.00 | 67 | 1017.7 |
| 20260507083312 | -1 | 308 | 3.2 | 9.7 | 0.00 | 0.56 | 0.00 | 69 | 1017.8 |
| 20260507082813 | -1 | 317 | 3.2 | 9.7 | 0.00 | 0.56 | 0.00 | 69 | 1017.7 |
| 20260507082314 | -1 | 315 | 3.2 | 9.7 | 0.00 | 0.56 | 0.00 | 70 | 1017.8 |
| 20260507081804 | -1 | 290 | 3.2 | 9.7 | 0.00 | 0.56 | 0.00 | 72 | 1017.8 |
| 20260507081253 | -1 | 313 | 3.2 | 9.7 | 0.00 | 0.56 | 0.00 | 72 | 1017.8 |
| 20260507080753 | -1 | 290 | 3.2 | 11.3 | 0.00 | 0.56 | 0.00 | 74 | 1017.8 |
| 20260507080253 | -1 | 302 | 3.2 | 11.3 | 0.00 | 0.56 | 0.00 | 76 | 1017.8 |
| 20260507075754 | -1 | 305 | 1.6 | 11.3 | 0.00 | 0.56 | 0.00 | 79 | 1017.8 |
| 20260507075253 | -2 | 300 | 1.6 | 6.4 | 0.00 | 0.56 | 0.00 | 82 | 1017.8 |
| 20260507074753 | -2 | 311 | 1.6 | 6.4 | 0.00 | 0.56 | 0.00 | 84 | 1017.9 |
| 20260507074254 | -2 | 311 | 1.6 | 6.4 | 0.00 | 0.56 | 0.00 | 87 | 1017.9 |
| 20260507073754 | -2 | 308 | 0.0 | 6.4 | 0.00 | 0.56 | 0.00 | 90 | 1017.9 |
| 20260507072730 | -2 | 285 | 0.0 | 3.2 | 0.00 | 0.56 | 0.00 | 93 | 1018.2 |
| 20260507072223 | -3 | 284 | 0.0 | 4.8 | 0.00 | 0.56 | 0.00 | 94 | 1018.2 |
| 20260507071724 | -3 | 284 | 0.0 | 4.8 | 0.00 | 0.56 | 0.00 | 94 | 1018.0 |
| 20260507071224 | -3 | 297 | 0.0 | 8.0 | 0.00 | 0.56 | 0.00 | 94 | 1018.0 |
| 20260507070722 | -3 | 299 | 0.0 | 8.0 | 0.00 | 0.56 | 0.00 | 94 | 1018.2 |
| 20260507070219 | -3 | 296 | 0.0 | 3.2 | 0.00 | 0.56 | 0.00 | 94 | 1018.3 |
| 20260507065720 | -3 | 273 | 0.0 | 0.0 | 0.00 | 0.56 | 0.00 | 94 | 1018.0 |
| 20260507065219 | -3 | 269 | 0.0 | 0.0 | 0.00 | 0.56 | 0.00 | 94 | 1018.2 |
| 20260507064717 | -3 | 269 | 0.0 | 0.0 | 0.00 | 0.56 | 0.00 | 94 | 1018.3 |
| 20260507064215 | -3 | 269 | 0.0 | 0.0 | 0.00 | 0.56 | 0.00 | 94 | 1018.3 |
| 20260507063713 | -3 | 268 | 0.0 | 0.0 | 0.00 | 0.56 | 0.00 | 94 | 1018.4 |
| 20260507063204 | -3 | 269 | 0.0 | 0.0 | 0.00 | 0.56 | 0.00 | 94 | 1018.3 |
| 20260507062702 | -3 | 269 | 0.0 | 0.0 | 0.00 | 0.56 | 0.00 | 94 | 1018.4 |
| 20260507062204 | -3 | 269 | 0.0 | 1.6 | 0.00 | 0.56 | 0.00 | 94 | 1018.4 |
| 20260507061704 | -3 | 269 | 0.0 | 4.8 | 0.00 | 0.56 | 0.00 | 94 | 1018.4 |
| 20260507061203 | -3 | 269 | 0.0 | 4.8 | 0.00 | 0.56 | 0.00 | 94 | 1018.4 |
| 20260507060703 | -3 | 269 | 1.6 | 4.8 | 0.00 | 0.56 | 0.00 | 94 | 1018.4 |
| 20260507060201 | -2 | 268 | 0.0 | 4.8 | 0.00 | 0.56 | 0.00 | 94 | 1018.5 |
| 20260507055654 | -2 | 266 | 0.0 | 4.8 | 0.00 | 0.56 | 0.56 | 94 | 1018.4 |
| 20260507055155 | -2 | 266 | 0.0 | 4.8 | 0.00 | 0.56 | 0.56 | 94 | 1018.3 |
| 20260507054652 | -2 | 267 | 0.0 | 4.8 | 0.00 | 0.56 | 0.56 | 94 | 1018.3 |
| 20260507054151 | -2 | 260 | 0.0 | 4.8 | 0.00 | 0.56 | 0.56 | 94 | 1018.4 |
| 20260507053148 | -2 | 273 | 1.6 | 4.8 | 0.00 | 0.56 | 0.56 | 94 | 1018.3 |
| 20260507052148 | -2 | 258 | 1.6 | 6.4 | 0.00 | 0.56 | 0.56 | 94 | 1018.3 |
| 20260507051644 | -2 | 238 | 1.6 | 6.4 | 0.00 | 0.56 | 0.56 | 94 | 1018.3 |
| 20260507051146 | -2 | 240 | 0.0 | 4.8 | 0.00 | 0.56 | 0.56 | 94 | 1018.3 |
| 20260507050644 | -2 | 247 | 1.6 | 6.4 | 0.00 | 0.56 | 0.56 | 94 | 1018.2 |
| 20260507050144 | -2 | 243 | 1.6 | 8.0 | 0.00 | 0.56 | 0.56 | 94 | 1018.3 |
| 20260507045645 | -2 | 240 | 3.2 | 8.0 | 0.00 | 0.56 | 0.56 | 94 | 1018.3 |
| 20260507045144 | -2 | 236 | 3.2 | 9.7 | 0.00 | 0.56 | 0.56 | 94 | 1018.3 |
| 20260507044646 | -2 | 236 | 4.8 | 11.3 | 0.00 | 0.56 | 0.56 | 94 | 1018.4 |
| 20260507044145 | -2 | 238 | 6.4 | 11.3 | 0.00 | 0.56 | 0.56 | 94 | 1018.3 |
| 20260507043639 | -2 | 234 | 6.4 | 11.3 | 0.00 | 0.56 | 0.56 | 94 | 1018.3 |
| 20260507043134 | -2 | 248 | 8.0 | 16.1 | 0.00 | 0.56 | 0.56 | 94 | 1018.3 |
| 20260507042623 | -2 | 244 | 9.7 | 16.1 | 0.00 | 0.56 | 0.56 | 94 | 1018.3 |
| 20260507042109 | -1 | 217 | 11.3 | 14.5 | 0.00 | 0.56 | 0.56 | 94 | 1018.3 |
| 20260507041608 | -1 | 228 | 11.3 | 16.1 | 0.00 | 0.56 | 0.56 | 94 | 1018.4 |
| 20260507041108 | -1 | 225 | 9.7 | 16.1 | 0.00 | 0.56 | 0.56 | 94 | 1018.3 |
| 20260507040608 | -1 | 233 | 9.7 | 16.1 | 0.00 | 0.56 | 0.56 | 94 | 1018.4 |
| 20260507035608 | -1 | 235 | 9.7 | 19.3 | 0.00 | 0.56 | 0.56 | 94 | 1018.4 |
| 20260507035107 | -1 | 234 | 11.3 | 19.3 | 0.00 | 0.56 | 0.56 | 94 | 1018.3 |
| 20260507034609 | -1 | 242 | 9.7 | 17.7 | 0.00 | 0.56 | 0.56 | 93 | 1018.3 |
| 20260507034056 | -1 | 230 | 8.0 | 16.1 | 0.00 | 0.56 | 0.56 | 93 | 1018.4 |
| 20260507033550 | -1 | 233 | 8.0 | 16.1 | 0.00 | 0.56 | 0.56 | 93 | 1018.4 |
| 20260507033050 | -1 | 236 | 8.0 | 16.1 | 0.00 | 0.56 | 0.56 | 93 | 1018.4 |
| 20260507032550 | -1 | 225 | 6.4 | 14.5 | 0.00 | 0.56 | 0.56 | 93 | 1018.3 |
| 20260507032051 | -1 | 240 | 8.0 | 16.1 | 0.00 | 0.56 | 0.56 | 92 | 1018.3 |
| 20260507031051 | -1 | 234 | 8.0 | 16.1 | 0.00 | 0.56 | 0.56 | 91 | 1018.0 |
| 20260507030551 | -1 | 221 | 8.0 | 12.9 | 0.00 | 0.56 | 0.56 | 90 | 1018.0 |
| 20260507025535 | -1 | 216 | 9.7 | 17.7 | 0.00 | 0.56 | 0.56 | 89 | 1017.9 |
| 20260507025022 | -1 | 225 | 8.0 | 17.7 | 0.00 | 0.56 | 0.56 | 89 | 1017.9 |
| 20260507024518 | -1 | 221 | 9.7 | 14.5 | 0.00 | 0.56 | 0.56 | 88 | 1017.8 |
| 20260507024017 | -1 | 227 | 9.7 | 16.1 | 0.00 | 0.56 | 0.56 | 88 | 1017.8 |
| 20260507023517 | -1 | 214 | 9.7 | 17.7 | 0.00 | 0.56 | 0.56 | 89 | 1017.8 |
| 20260507023015 | -1 | 217 | 9.7 | 17.7 | 0.00 | 0.56 | 0.56 | 88 | 1017.8 |
| 20260507022516 | -1 | 222 | 9.7 | 17.7 | 0.00 | 0.56 | 0.56 | 87 | 1017.7 |
| 20260507022016 | -1 | 224 | 9.7 | 16.1 | 0.00 | 0.56 | 0.56 | 87 | 1017.7 |
| 20260507021517 | -1 | 229 | 9.7 | 16.1 | 0.00 | 0.56 | 0.56 | 87 | 1017.7 |
| 20260507021013 | -1 | 224 | 9.7 | 17.7 | 0.00 | 0.56 | 0.56 | 87 | 1017.7 |
| 20260507020514 | -1 | 218 | 9.7 | 17.7 | 0.00 | 0.56 | 0.56 | 87 | 1017.5 |
| 20260507020014 | -1 | 202 | 9.7 | 16.1 | 0.00 | 0.56 | 0.56 | 87 | 1017.5 |
| 20260507015515 | -1 | 207 | 8.0 | 14.5 | 0.00 | 0.56 | 0.56 | 86 | 1017.7 |
| 20260507015015 | 0 | 219 | 9.7 | 17.7 | 0.00 | 0.56 | 0.56 | 86 | 1017.5 |
| 20260507014515 | 0 | 227 | 9.7 | 17.7 | 0.00 | 0.56 | 0.56 | 84 | 1017.5 |
| 20260507014015 | 0 | 237 | 9.7 | 17.7 | 0.00 | 0.56 | 0.56 | 83 | 1017.5 |
| 20260507013514 | 0 | 238 | 11.3 | 19.3 | 0.00 | 0.56 | 0.56 | 81 | 1017.5 |
| 20260507012450 | 0 | 215 | 11.3 | 22.5 | 0.00 | 0.56 | 0.56 | 81 | 1017.4 |
| 20260507011951 | 0 | 211 | 12.9 | 22.5 | 0.00 | 0.56 | 0.56 | 81 | 1017.4 |
| 20260507011449 | 0 | 221 | 12.9 | 19.3 | 0.00 | 0.56 | 0.56 | 80 | 1017.4 |
| 20260507010950 | 0 | 236 | 12.9 | 20.9 | 0.00 | 0.56 | 0.56 | 81 | 1017.4 |
| 20260507010450 | 0 | 234 | 12.9 | 20.9 | 0.00 | 0.58 | 0.56 | 81 | 1017.4 |
| 20260507005950 | 0 | 217 | 11.3 | 22.5 | 0.00 | 0.58 | 0.56 | 80 | 1017.3 |
| 20260507005449 | 0 | 224 | 9.7 | 22.5 | 0.00 | 0.58 | 0.56 | 80 | 1017.3 |
| 20260507004951 | 0 | 237 | 8.0 | 14.5 | 0.00 | 0.58 | 0.56 | 78 | 1017.3 |
| 20260507004450 | 0 | 249 | 6.4 | 12.9 | 0.00 | 0.58 | 0.56 | 76 | 1017.3 |
| 20260507003950 | 0 | 227 | 6.4 | 11.3 | 0.00 | 0.58 | 0.56 | 78 | 1017.3 |
| 20260507003451 | 0 | 212 | 8.0 | 14.5 | 0.00 | 0.58 | 0.56 | 75 | 1017.3 |
| 20260507002441 | 0 | 235 | 8.0 | 14.5 | 0.00 | 0.58 | 0.56 | 76 | 1017.3 |
| 20260507001939 | 0 | 228 | 8.0 | 14.5 | 0.00 | 0.58 | 0.56 | 77 | 1017.3 |
| 20260507001440 | 0 | 240 | 8.0 | 14.5 | 0.00 | 0.58 | 0.56 | 76 | 1017.3 |
| 20260507000940 | 0 | 242 | 6.4 | 11.3 | 0.00 | 0.58 | 0.56 | 77 | 1017.3 |
| 20260507000442 | 0 | 215 | 6.4 | 12.9 | 0.36 | 0.58 | 0.56 | 75 | 1017.3 |
| 20260506235434 | 0 | 255 | 3.2 | 11.3 | 0.36 | 0.61 | 0.56 | 74 | 1017.2 |
| 20260506234935 | 0 | 237 | 3.2 | 11.3 | 0.36 | 0.61 | 0.56 | 74 | 1017.2 |
| 20260506234434 | 0 | 240 | 4.8 | 11.3 | 0.36 | 0.61 | 0.56 | 75 | 1017.2 |
| 20260506233435 | 0 | 234 | 4.8 | 11.3 | 0.38 | 0.61 | 0.56 | 74 | 1017.2 |
| 20260506232934 | 1 | 209 | 3.2 | 11.3 | 0.38 | 0.61 | 0.56 | 77 | 1017.3 |
| 20260506231934 | 1 | 240 | 0.0 | 11.3 | 0.38 | 0.61 | 0.56 | 74 | 1017.2 |
| 20260506231433 | 1 | 279 | 0.0 | 6.4 | 0.38 | 0.61 | 0.56 | 76 | 1017.2 |
| 20260506230933 | 1 | 317 | 0.0 | 6.4 | 0.38 | 0.61 | 0.56 | 76 | 1017.2 |
| 20260506230434 | 0 | 318 | 0.0 | 6.4 | 0.03 | 0.28 | 0.20 | 76 | 1017.2 |
| 20260506224859 | 1 | 327 | 0.0 | 0.0 | 0.03 | 0.28 | 0.20 | 81 | 1017.0 |
| 20260506224401 | 1 | 327 | 0.0 | 6.4 | 0.03 | 0.28 | 0.20 | 80 | 1017.2 |
| 20260506223859 | 1 | 333 | 0.0 | 6.4 | 0.00 | 0.25 | 0.20 | 82 | 1017.2 |
| 20260506222900 | 0 | 336 | 1.6 | 9.7 | 0.00 | 0.25 | 0.18 | 82 | 1017.3 |
| 20260506221901 | 0 | 5 | 3.2 | 14.5 | 0.00 | 0.25 | 0.18 | 82 | 1017.4 |
| 20260506221401 | 0 | 9 | 4.8 | 14.5 | 0.00 | 0.25 | 0.18 | 83 | 1017.3 |
| 20260506220854 | 0 | 0 | 6.4 | 14.5 | 0.03 | 0.25 | 0.18 | 85 | 1017.3 |
| 20260506220355 | 0 | 24 | 6.4 | 14.5 | 0.03 | 0.28 | 0.18 | 85 | 1017.3 |
| 20260506215353 | 0 | 9 | 8.0 | 17.7 | 0.03 | 0.28 | 0.18 | 84 | 1017.3 |
| 20260506214851 | 0 | 5 | 9.7 | 17.7 | 0.03 | 0.28 | 0.18 | 86 | 1017.3 |
| 20260506214352 | 0 | 355 | 12.9 | 22.5 | 0.03 | 0.28 | 0.18 | 86 | 1017.4 |
| 20260506213853 | 0 | 27 | 12.9 | 22.5 | 0.03 | 0.28 | 0.18 | 85 | 1017.4 |
| 20260506213349 | 0 | 24 | 11.3 | 20.9 | 0.03 | 0.28 | 0.18 | 83 | 1017.4 |
| 20260506212347 | 0 | 24 | 12.9 | 20.9 | 0.03 | 0.28 | 0.18 | 85 | 1017.7 |
| 20260506211347 | 0 | 20 | 11.3 | 20.9 | 0.03 | 0.28 | 0.18 | 85 | 1017.5 |
| 20260506210847 | 0 | 13 | 8.0 | 20.9 | 0.00 | 0.25 | 0.15 | 88 | 1017.5 |
| 20260506210349 | -1 | 15 | 11.3 | 24.1 | 0.03 | 0.25 | 0.15 | 87 | 1017.4 |
| 20260506205849 | -1 | 69 | 14.5 | 24.1 | 0.03 | 0.25 | 0.15 | 85 | 1017.4 |
| 20260506204824 | -1 | 50 | 11.3 | 20.9 | 0.03 | 0.25 | 0.15 | 86 | 1017.4 |
| 20260506204311 | -1 | 69 | 12.9 | 22.5 | 0.03 | 0.25 | 0.15 | 85 | 1017.5 |
| 20260506203811 | -1 | 45 | 11.3 | 22.5 | 0.03 | 0.25 | 0.15 | 87 | 1017.5 |
| 20260506202813 | -1 | 38 | 9.7 | 17.7 | 0.03 | 0.25 | 0.15 | 88 | 1017.7 |
| 20260506201812 | -1 | 58 | 12.9 | 22.5 | 0.05 | 0.25 | 0.15 | 86 | 1017.7 |
| 20260506201313 | -1 | 59 | 12.9 | 22.5 | 0.05 | 0.25 | 0.15 | 87 | 1017.5 |
| 20260506200813 | -1 | 32 | 12.9 | 19.3 | 0.03 | 0.23 | 0.15 | 86 | 1017.5 |
| 20260506200312 | -1 | 24 | 14.5 | 24.1 | 0.03 | 0.23 | 0.13 | 86 | 1017.4 |
| 20260506195801 | -1 | 9 | 14.5 | 22.5 | 0.05 | 0.23 | 0.13 | 86 | 1017.4 |
| 20260506195258 | -1 | 39 | 12.9 | 22.5 | 0.05 | 0.23 | 0.13 | 87 | 1017.4 |
| 20260506194257 | -1 | 44 | 12.9 | 20.9 | 0.05 | 0.25 | 0.13 | 88 | 1017.3 |
| 20260506193754 | -1 | 47 | 12.9 | 20.9 | 0.05 | 0.25 | 0.13 | 88 | 1017.3 |